C/2015 H2 ( PanSTARRS )

Japanese version
Home page
Updated on March 3, 2018

---------------------------------------------------------------------

* Profile

Discovery Date April 24, 2015
Magnitude 19.7 mag
Discoverer Pan-STARRS 1 telescope (Haleakala)

* Pictures

* Orbital Elements

Epoch 2016 Sept. 9.0 TT = JDT 2457640.5
T 2016 Sept. 13.25311 TT                                MPCW
q   4.9671953            (2000.0)            P               Q
z  -0.0006610      Peri.  287.90553     +0.17536427     +0.98040387
 +/-0.0000012      Node   350.69203     -0.55230725     +0.02250128
e   1.0032833      Incl.   33.70510     -0.81498716     +0.19570884
From 144 observations 2014 May 19-2017 Nov. 22, mean residual 0".6.

* Magnitudes Graph

        m1 = 7.0 + 5 log d + 10.0 log r

---------------------------------------------------------------------

The orbital elements are published on M.P.E.C. 2018-D91.
The magnitudes graphs are made with Comet for Windows.

---------------------------------------------------------------------

Copyright(C) Seiichi Yoshida (comet@aerith.net). All rights reserved.